Simultaneous Nadir Overpasses (SNOs) Predictions

Prediction of SNOs between METOP-B and TERRA Satellite Orbit:

Table of predicted SNOs for the next 14.0 days since TLE Epoch: 8/3/2013
Index Date (METOP-B) Time (METOP-B) Lat,Lon (METOP-B) SZA (METOP-B ) Date (TERRA) Time (TERRA) Lat,Lon (TERRA) SZA (TERRA ) Distance(km) Time Diff (sec)
1 08/03/2013 18:19:09 -81.30, 132.06 113.35 08/03/2013 18:19:16 -81.30, 132.22 113.33 2.65 7
2 08/03/2013 19:09:48 81.30, -60.13 66.72 08/03/2013 19:08:42 81.30, -60.01 66.71 1.99 66
3 08/06/2013 13:53:30 -81.30,-161.55 112.59 08/06/2013 13:53:33 -81.29,-161.41 112.57 2.47 3
4 08/06/2013 14:44:09 81.30, 6.21 67.48 08/06/2013 14:42:59 81.30, 6.34 67.46 2.23 70
5 08/09/2013 08:37:10 81.29, 97.24 68.18 08/09/2013 08:38:23 81.29, 97.30 68.21 0.95 73
6 08/09/2013 09:27:50 -81.30, -94.81 111.74 08/09/2013 09:27:49 -81.31, -94.72 111.73 1.64 1
7 08/09/2013 10:18:26 81.32, 74.08 68.46 08/09/2013 10:17:12 81.37, 74.14 68.47 5.63 74
8 08/12/2013 04:11:29 81.30, 163.90 69.04 08/12/2013 04:12:38 81.30, 163.89 69.08 0.32 69
9 08/12/2013 05:02:10 -81.30, -28.51 110.92 08/12/2013 05:02:05 -81.30, -28.49 110.92 0.51 5
10 08/14/2013 23:45:49 81.30,-129.47 69.94 08/14/2013 23:46:54 81.30,-129.59 69.96 2.04 65




NCC Satellite Simultaneous Nadir Overpasses (SNOs) Prediction Service
